Regional Weather Roundup
Issued by NWS

Home | Current Version | Previous Version | Text Only | Print | Product List | Glossary On
Versions: 1 2 3 4 5 6 7 8 9 10 11 12 13 14 15 16 17 18 19 20 21 22 23 24 25 26 27 28 29 30 31 32 33 34 35 36 37 38 39 40 41 42 43 44 45 46 47 48 49 50
000
ASUS46 KSTO 281215
RWRCA

NORTHERN AND CENTRAL CA REGIONAL WEATHER ROUNDUP
NATIONAL WEATHER SERVICE SACRAMENTO CA
500 AM PDT SUN AUG 28 2016

NOTE: FAIR INDICATES FEW OR NO CLOUDS BELOW 12,000 FEET WITH NO
SIGNIFICANT WEATHER AND/OR OBSTRUCTIONS TO VISIBILITY.

CAZ001-003-281300-
NORTHWEST AREA

CITY           SKY/WX    TMP DP  RH WIND       PRES   REMARKS
CRESCENT CITY  CLOUDY    54  53  97 CALM      30.07R
UKIAH          CLOUDY    56  52  86 S5        30.06R
$$

CAZ006-505>513-281300-
BAY AREA

CITY           SKY/WX    TMP DP  RH WIND       PRES   REMARKS
SANTA ROSA     CLOUDY    58  54  86 CALM      30.05R
SAN RAFAEL     N/A       60  MM  MM MISG
NAPA           CLOUDY    58  53  84 N5        30.05S
CONCORD        CLOUDY    61  51  70 W9        30.05R
OAKLAND CITY   N/A       60  MM  MM MISG
OAKLAND        MOCLDY    62  54  74 W8        30.06S
SAN FRAN CITY  N/A       59  MM  76 MISG
SAN FRAN ARPT  PTCLDY    59  51  75 SW3       30.06R
LIVERMORE      CLOUDY    60  53  77 W7        30.05R
HAYWARD        CLOUDY    62  51  67 W5        30.05S
REDWOOD CITY   N/A       57  MM  85 MISG
MOFFETT ARPT   CLOUDY    63  53  70 NW3       30.06R
SAN JOSE ARPT  CLOUDY    62  54  74 SE5       30.05S
$$
CAZ034-037-514>518-281300-
CENTRAL COAST

CITY           SKY/WX    TMP DP  RH WIND       PRES   REMARKS
WATSONVILLE    CLOUDY    58  56  93 CALM      30.06S
SALINAS        CLOUDY    61  53  75 SW3       30.06R
MONTEREY       CLOUDY    60  53  77 CALM      30.06S
SAN LUIS OBISP PTCLDY    59  55  87 NW7       30.02S
SANTA MARIA    CLEAR     53  53 100 CALM      30.03S
$$
CAZ015-016-281300-
NORTHERN SACRAMENTO VALLEY

CITY           SKY/WX    TMP DP  RH WIND       PRES   REMARKS
REDDING        CLEAR     66  52  60 CALM      30.02S
RED BLUFF      CLEAR     63  52  67 CALM      30.03R
OROVILLE       CLEAR     61  52  72 S5        30.03S
$$
CAZ016>018-281300-
SOUTHERN SACRAMENTO VALLEY

CITY           SKY/WX    TMP DP  RH WIND       PRES   REMARKS
AUBURN         CLEAR     55  46  71 CALM      30.05S
BEALE AFB      CLEAR     56  51  82 S5        29.99S
LINCOLN        FAIR      59  50  72 SE9       30.01S
MARYSVILLE     CLEAR     58  52  80 S6        30.01S
SAC INTL ARPT  CLEAR     57  51  80 SE12      30.00R
MATHER AIRPORT CLEAR     50  48  93 SE6       29.95
DOWNTOWN SAC   N/A       58  MM  MM MISG
SAC EXEC ARPT  CLEAR     57  51  80 S8        30.02R
VACAVILLE      CLEAR     54  46  74 CALM      30.01R
TRAVIS AFB     CLEAR     56  51  84 SW20      29.99R
$$
CAZ019>021-281300-
SAN JOAQUIN VALLEY

CITY           SKY/WX    TMP DP  RH WIND       PRES   REMARKS
STOCKTON       CLEAR     56  53  90 N6        30.03R
MODESTO        CLEAR     60  53  77 N9        30.01R
MERCED         CLEAR     59  54  83 NW7       30.00R
LEMOORE        CLEAR     64  52  64 NW14      30.00S
FRESNO         CLEAR     64  54  69 W8        29.99R
HANFORD        CLEAR     64  55  72 NW9       29.99S
PORTERVILLE    CLEAR     64  51  62 S7        30.00R
BAKERSFIELD    CLEAR     68  53  58 CALM      30.00R
$$
CAZ011-012-071-281300-
NORTHERN MOUNTAINS

CITY           SKY/WX    TMP DP  RH WIND       PRES   REMARKS
YREKA          CLEAR     52  36  54 E5        30.07S
MOUNT SHASTA   CLEAR     50  43  77 CALM      30.13S
ALTURAS        CLEAR     47  35  63 CALM      30.18R
$$
CAZ011-012-071-281300-
SIERRA NEVADA MTNS

CITY           SKY/WX    TMP DP  RH WIND       PRES   REMARKS
BLUE CANYON    CLEAR     63  33  32 E3        30.24S
TRUCKEE        CLEAR     36  32  87 CALM      30.29S
TAHOE VLY ARPT CLEAR     42  32  67 CALM      30.28S
MAMMOTH LAKES  FAIR      44  31  61 CALM      30.34R
$$



USA.gov is the U.S. government's official web portal to all federal, state and local government web resources and services.